[[{"header":{"parameterUnit":"m.s-1","parameterCategory":1,"la1":30.2991,"la2":30.254,"lo1":-89.0895,"lo2":-89.0444,"dy":0.0017,"dx":0.0017,"nx":28,"ny":28,"refTime":"2024-05-09T03:00:00:Z","depth":0,"parameterNumber":2,"parameterNumberName":"U-component_of_WINDS"},"data":[0,0,0,0,0,0,0,0,0,0,0,0,0,0,0,0,0,0,0,0,0,0,0,0,0,0,0,0,0,0,0,0,0,0,0,0,0,0,0,0,0,0,0,0,0,0,0,0,0,0,0,0,0,0,0,0,0,0,2.9899,2.9901,0,3.003,3.0032,3.0033,3.0027,3.0025,3.0023,3.0021,3.0159,3.0165,3.017,0,0,0,0,0,0,0,0,0,0,0,0,0,2.9647,2.9651,2.9899,2.9901,2.9902,3.003,3.0032,3.0034,3.0027,3.0025,3.0022,3.002,3.0158,3.0164,3.0171,0,0,0,0,0,0,0,0,0,0,0,0,0,2.9765,2.9653,2.9899,2.9914,2.9917,3.003,3.0032,3.0034,3.0028,3.0025,3.0022,3.0019,3.0156,3.0163,3.0171,3.0278,0,0,3.0196,3.02,0,0,0,0,0,0,0,0,2.9758,2.9774,2.991,2.9913,2.9917,3.0009,2.9993,3.0116,3.0028,2.9986,3.0021,3.0018,3.0112,3.0124,3.0154,3.0285,3.0291,3.0197,3.0202,3.0206,3.0208,0,0,0,0,0,0,0,2.975,2.9768,2.9951,2.9912,2.9916,2.9916,2.993,3.0017,3.0063,2.9989,2.9989,3.0004,3.0113,3.0147,3.0158,3.0293,3.0197,3.0204,3.0209,3.0212,3.0517,3.052,0,0,0,0,0,0,2.9738,2.9762,2.9947,2.9955,2.9829,2.9923,2.9938,2.9982,3.0062,3.0072,3.0007,3.0004,3.0134,3.0148,3.0163,3.0292,3.0206,3.0213,3.0218,3.0514,3.0518,3.0521,0,0,0,0,0,0,2.9732,2.9754,2.9942,2.9858,2.9882,2.993,2.998,2.9986,3.002,3.0075,3.0084,3.0032,3.0132,3.0151,3.0249,3.0297,3.0217,3.0224,3.051,3.0515,3.052,3.0552,0,0,0,0,0,0,2.9725,2.9752,2.9793,2.9859,2.9887,3.0025,2.9983,2.9991,3.0033,3.0031,3.0101,3.0111,3.0132,3.0237,3.0257,3.0307,3.0231,3.0506,3.0512,3.0518,3.0547,3.0558,3.0567,0,0,0,0,0,2.9716,2.9798,2.9795,2.9817,2.9938,3.0028,3.0043,3.0065,3.0037,3.0078,3.0114,3.0108,3.0289,3.0247,3.027,3.0322,3.0503,3.0511,3.0518,3.0543,3.0556,3.0566,0,0,0,0,0,0,2.9737,2.9807,2.9804,2.9909,2.9962,3.0026,3.0079,3.0078,3.0141,3.0136,3.0161,3.0177,3.0275,3.0309,3.0262,3.043,3.0393,3.0405,3.0404,3.0416,3.0426,3.0415,3.0237,0,0,0,0,0,2.9753,2.9819,2.9877,2.9965,2.9991,3.0031,3.0071,3.0083,3.0139,3.0162,3.0205,3.0261,3.033,3.0376,3.0443,3.0553,3.0568,3.06,3.061,3.0617,3.0627,3.0687,3.0702,3.0545,3.0545,3.0545,0,0,2.9788,2.9835,2.9875,2.997,3.0012,3.0081,3.005,3.0124,3.0175,3.0174,3.0268,3.0302,3.0367,3.0471,3.0519,3.0502,3.0674,3.0627,3.0632,3.0638,3.0696,3.0711,3.0724,3.055,3.0549,3.0548,0,0,2.9887,2.9929,3.0006,3.0049,3.0113,3.0139,3.0157,3.0222,3.0244,3.0339,3.0339,3.0401,3.052,3.0566,3.0605,3.0721,3.0718,3.0743,3.0793,3.0851,3.0863,3.0875,3.0915,3.093,3.0753,3.0753,3.0753,0,2.9923,3.0025,3.0046,3.012,3.0162,3.0163,3.0241,3.0282,3.0366,3.0395,3.0375,3.0523,3.0567,3.0682,3.071,3.0742,3.0764,3.0734,3.086,3.0871,3.0882,3.0921,3.0936,3.0755,3.0755,3.0755,3.0754,0,3.0065,3.0137,3.0191,3.027,3.0318,3.0394,3.0427,3.0474,3.0482,3.051,3.0607,3.066,3.0737,3.0765,3.0775,3.0882,3.0869,3.0854,3.0817,3.0899,3.0936,3.0951,3.0759,3.0758,3.0757,3.0756,0,0,3.0179,3.0269,3.0288,3.0324,3.0395,3.0451,3.0528,3.0602,3.0641,3.07,3.0764,3.0865,3.0851,3.0896,3.091,3.0962,3.1049,3.0941,3.0943,3.0958,3.117,3.1179,3.1196,3.1048,3.1051,3.1054,3.1164,0,3.0284,3.0418,3.0439,3.0557,3.0623,3.0626,3.0692,3.0744,3.0773,3.0834,3.0866,3.0936,3.0914,3.094,3.0991,3.1028,3.1092,3.102,3.1109,3.1112,3.1091,3.1215,3.1226,3.1327,3.1178,3.1181,3.1183,0,3.0424,3.0484,3.0608,3.067,3.0699,3.0758,3.0828,3.0886,3.0945,3.0963,3.1012,3.102,3.1101,3.1061,3.1172,3.1123,3.1161,3.1185,3.1189,3.1197,3.1151,3.1226,3.136,3.1375,3.1206,3.1204,3.1202,0,3.0493,3.0606,3.0694,3.0725,3.08,3.0842,3.0875,3.0931,3.0974,3.1036,3.1064,3.1135,3.1173,3.1229,3.1256,3.1225,3.1366,3.1328,3.1382,3.1381,3.141,3.1408,3.1551,3.1437,3.1437,3.1437,3.1437,0,3.0607,3.0683,3.0726,3.078,3.0865,3.089,3.0974,3.1007,3.1057,3.1118,3.1126,3.1183,3.1217,3.128,3.1303,3.1391,3.1409,3.1426,3.143,3.1424,3.1422,3.1448,3.1441,3.1441,3.144,3.1439,3.1439,0,3.0698,3.073,3.0826,3.0889,3.0907,3.0967,3.1021,3.1075,3.1103,3.1181,3.1201,3.1246,3.1321,3.1354,3.1447,3.1462,3.1562,3.1563,3.1542,3.1543,3.1595,3.1589,3.1759,3.1782,3.1654,3.1655,3.1656,0,3.0768,3.0826,3.0895,3.0935,3.097,3.1036,3.108,3.1107,3.1152,3.1224,3.1269,3.1343,3.1404,3.1523,3.1565,3.1636,3.1638,3.1693,3.1649,3.164,3.1637,3.1633,3.1638,3.17,3.1701,3.1702,3.1703,0,3.0888,3.0901,3.0963,3.1031,3.1082,3.1137,3.1191,3.1225,3.1261,3.1312,3.1387,3.1434,3.1528,3.1602,3.1676,3.1711,3.1714,3.1717,3.1733,3.1726,3.1711,3.1719,3.1562,3.1713,3.1712,3.1711,3.1711,3.171,3.0969,3.1021,3.1077,3.1146,3.1189,3.1239,3.1292,3.1327,3.139,3.1468,3.1481,3.1561,3.1619,3.1718,3.1756,3.182,3.1807,3.1831,3.1836,3.1841,3.1844,3.1702,3.1834,3.1834,3.1834,3.1834,3.1834,0,3.1088,3.1125,3.1188,3.1263,3.1317,3.1314,3.1373,3.1419,3.1489,3.1543,3.1602,3.1689,3.1761,3.1809,3.1882,3.1924,3.1927,3.1942,3.1938,3.1946,3.1852,3.183,3.1938,3.1938,3.1938,3.1938,3.1938,3.1938,3.1157,3.1243,3.1263,3.1371,3.1407,3.1485,3.1519,3.1566,3.1609,3.1705,3.1764,3.1794,3.1846,3.1922,3.1988,3.2,3.2026,3.2042,3.2054,3.1964,3.1953,3.1943,3.1922,3.2048,3.2048,3.2142,3.2143,3.2144]},{"header":{"parameterUnit":"m.s-1","parameterCategory":1,"la1":30.2991,"la2":30.254,"lo1":-89.0895,"lo2":-89.0444,"dy":0.0017,"dx":0.0017,"nx":28,"ny":28,"refTime":"2024-05-09T03:00:00:Z","depth":0,"parameterNumber":3,"parameterNumberName":"V-component_of_WINDS"},"data":[0,0,0,0,0,0,0,0,0,0,0,0,0,0,0,0,0,0,0,0,0,0,0,0,0,0,0,0,0,0,0,0,0,0,0,0,0,0,0,0,0,0,0,0,0,0,0,0,0,0,0,0,0,0,0,0,0,0,3.3716,3.3717,0,3.3846,3.3847,3.3849,3.3842,3.384,3.3838,3.3836,3.3967,3.3973,3.3978,0,0,0,0,0,0,0,0,0,0,0,0,0,3.3459,3.3463,3.3715,3.3717,3.3719,3.3846,3.3848,3.3849,3.3842,3.384,3.3837,3.3835,3.3966,3.3972,3.3978,0,0,0,0,0,0,0,0,0,0,0,0,0,3.3578,3.3465,3.3715,3.373,3.3733,3.3845,3.3848,3.385,3.3842,3.384,3.3837,3.3834,3.3964,3.3971,3.3979,3.4084,0,0,3.4003,3.4006,0,0,0,0,0,0,0,0,3.3571,3.3587,3.3727,3.373,3.3733,3.3825,3.3805,3.3928,3.3843,3.3801,3.3836,3.3833,3.3922,3.3933,3.3964,3.409,3.4096,3.4004,3.4009,3.4012,3.4014,0,0,0,0,0,0,0,3.3563,3.3581,3.3767,3.3729,3.3732,3.373,3.3744,3.3828,3.3876,3.3804,3.3804,3.382,3.3923,3.3956,3.3967,3.4098,3.4004,3.4011,3.4015,3.4018,3.4318,3.4321,0,0,0,0,0,0,3.3551,3.3575,3.3763,3.3771,3.3643,3.3737,3.3753,3.3798,3.3875,3.3884,3.3822,3.3819,3.3944,3.3958,3.3971,3.41,3.4012,3.4019,3.4024,3.4314,3.4318,3.4322,0,0,0,0,0,0,3.3546,3.3568,3.3758,3.3673,3.3697,3.3745,3.3796,3.3802,3.3835,3.3888,3.3896,3.3847,3.3942,3.396,3.4056,3.4105,3.4023,3.403,3.4311,3.4316,3.432,3.4358,0,0,0,0,0,0,3.3539,3.3566,3.3607,3.3674,3.3701,3.3841,3.3799,3.3807,3.3849,3.3846,3.3914,3.3922,3.3942,3.4045,3.4064,3.4114,3.4036,3.4307,3.4313,3.4319,3.4353,3.4364,3.4373,0,0,0,0,0,3.3529,3.3612,3.3609,3.3632,3.3753,3.3844,3.386,3.3881,3.3853,3.3894,3.3928,3.392,3.4096,3.4055,3.4077,3.4129,3.4304,3.4311,3.4318,3.4348,3.4361,3.4373,0,0,0,0,0,0,3.3548,3.3621,3.3619,3.3725,3.3779,3.3843,3.3895,3.3894,3.3956,3.395,3.3973,3.3989,3.4085,3.4117,3.4069,3.4235,3.4196,3.4208,3.4212,3.4225,3.4234,3.4225,3.4043,0,0,0,0,0,3.3565,3.3633,3.3692,3.3781,3.3808,3.3847,3.3887,3.3899,3.3955,3.3977,3.4018,3.4072,3.414,3.4184,3.4249,3.4357,3.4372,3.4404,3.4414,3.4422,3.4433,3.4493,3.4508,3.4346,3.4346,3.4345,0,0,3.36,3.3648,3.3689,3.3786,3.3829,3.3898,3.3866,3.3941,3.3993,3.3988,3.4082,3.4114,3.4176,3.4279,3.4326,3.4308,3.4481,3.4431,3.4437,3.4444,3.4502,3.4518,3.4531,3.4351,3.435,3.4349,0,0,3.3699,3.3742,3.3821,3.3865,3.3931,3.3956,3.3975,3.404,3.4062,3.4156,3.4155,3.4216,3.4332,3.4376,3.4414,3.4532,3.4527,3.4552,3.4605,3.4664,3.4676,3.4688,3.4731,3.4746,3.4562,3.4562,3.4562,0,3.3734,3.384,3.3862,3.3938,3.3981,3.3981,3.4061,3.4102,3.4185,3.4214,3.4193,3.4339,3.438,3.4494,3.4523,3.4553,3.4576,3.4545,3.4673,3.4685,3.4696,3.4737,3.4753,3.4565,3.4564,3.4564,3.4564,0,3.388,3.3954,3.401,3.4091,3.414,3.4218,3.4251,3.4297,3.4305,3.4333,3.443,3.4479,3.4555,3.4583,3.459,3.4698,3.4685,3.4668,3.4629,3.4714,3.4753,3.4769,3.4568,3.4567,3.4567,3.4566,0,0,3.3995,3.4089,3.4109,3.4147,3.4219,3.4276,3.4354,3.4429,3.4469,3.4526,3.4592,3.469,3.4676,3.4718,3.4731,3.4782,3.4874,3.4759,3.4761,3.478,3.4997,3.501,3.5028,3.4871,3.4874,3.4876,3.4992,0,3.4103,3.4242,3.4264,3.4386,3.4455,3.4456,3.4524,3.4575,3.4604,3.4665,3.4696,3.4766,3.474,3.4766,3.4817,3.4852,3.4918,3.4843,3.4932,3.4935,3.4918,3.5048,3.5062,3.5169,3.5007,3.501,3.5012,0,3.4248,3.431,3.444,3.4504,3.4534,3.4594,3.4665,3.4724,3.4783,3.48,3.4848,3.4855,3.4936,3.4893,3.5004,3.4953,3.4991,3.5013,3.5018,3.5028,3.4979,3.5062,3.5203,3.522,3.5036,3.5034,3.5032,0,3.432,3.4436,3.4529,3.4561,3.4638,3.4681,3.4715,3.4771,3.4815,3.4877,3.4906,3.4976,3.5014,3.5068,3.5093,3.5059,3.5203,3.5162,3.522,3.5219,3.525,3.5248,3.5401,3.5273,3.5273,3.5272,3.5272,0,3.4439,3.4518,3.4563,3.462,3.4709,3.4733,3.482,3.4853,3.4903,3.4966,3.4971,3.503,3.5059,3.5123,3.5143,3.5233,3.525,3.5266,3.527,3.5266,3.5264,3.5292,3.5285,3.5277,3.5276,3.5275,3.5274,0,3.4534,3.4568,3.4669,3.4735,3.4753,3.4816,3.4872,3.4927,3.4955,3.5035,3.5055,3.5099,3.5174,3.5204,3.5296,3.5309,3.5413,3.5411,3.5394,3.5395,3.5452,3.5446,3.5628,3.5653,3.5507,3.5509,3.551,0,3.4608,3.467,3.4742,3.4786,3.4822,3.4891,3.4936,3.4962,3.5009,3.5082,3.5128,3.5204,3.5266,3.5385,3.5425,3.5495,3.5496,3.5555,3.5506,3.5501,3.5498,3.5495,3.5501,3.5564,3.5565,3.5566,3.5567,0,3.4737,3.475,3.4816,3.4888,3.4943,3.5,3.5057,3.5091,3.5126,3.5179,3.5256,3.5304,3.5399,3.5474,3.5546,3.5581,3.558,3.5582,3.5599,3.5596,3.5584,3.5593,3.5419,3.5578,3.5577,3.5576,3.5575,3.5575,3.4825,3.488,3.494,3.5013,3.5059,3.5111,3.5167,3.5203,3.5268,3.5348,3.5359,3.5442,3.55,3.5598,3.5635,3.57,3.5685,3.571,3.5716,3.5722,3.5727,3.5573,3.5713,3.5713,3.5713,3.5713,3.5713,0,3.4954,3.4993,3.506,3.514,3.5198,3.5193,3.5255,3.5304,3.5377,3.5431,3.5493,3.5582,3.5655,3.5701,3.5774,3.5818,3.5819,3.5836,3.5834,3.5842,3.5736,3.5714,3.5834,3.5834,3.5834,3.5834,3.5834,3.5834,3.5028,3.5122,3.5143,3.5259,3.5297,3.538,3.5416,3.5464,3.5508,3.5608,3.567,3.5699,3.575,3.5828,3.5894,3.5906,3.5933,3.5951,3.5962,3.5862,3.5849,3.5837,3.5817,3.5957,3.5957,3.6063,3.6064,3.6065]}]]